Temp
2 2 4 4 3 3 3 3 3 3 4 4 5 6 6 6 6 7 7 6 6 5 4 4 4 4 4 3 3 2 2 2 2 2 2 2 2 2 2 2 2 2 2 2
2 3 2 3 3 3 3 2 2 3 4 4 5 6 6 6 7 7 7 6 6 5 4 4 3 3 3 3 2 2 2 1 2 2 2 2 2 2 2 2 2 2 2 2
2 2 3 3 2 2 2 2 2 2 3 4 4 5 7 7 8 7 7 7 6 5 4 3 3 3 3 2 2 2 2 2 1 1 2 2 2 2 2 3 3 2 2 2
1 1 2 2 2 2 1 3 2 2 2 2 3 3 5 6 7 7 6 6 5 5 4 4 3 3 2 2 2 1 1 1 1 2 1 1 2 2 2 2 2 1 1 1
1 2 2 1 1 2 1 2 2 2 1 1 1 1 6 6 7 6 6 5 5 4 4 3 3 3 2 1 1 1 1 1 1 1 1 1 1 2 2 1 1 0 0 0
1 1 1 1 1 1 1 1 1 1 0 -1 2 1 5 5 6 6 5 4 4 4 3 3 3 2 1 1 1 1 1 0 0 0 0 1 1 1 1 0 -0 -0 -0 -0
-0 0 1 1 0 0 0 -0 -1 -0 -1 2 -1 -1 6 5 5 5 5 4 3 3 3 2 2 2 1 1 1 1 0 -0 -0 -0 0 0 0 1 1 0 -0 -0 -0 -0
-1 -1 1 0 -0 -0 0 -1 2 3 3 3 -2 -1 5 6 5 5 4 3 3 2 2 2 2 2 1 1 1 0 -0 -0 -0 -0 -0 -0 -0 -0 0 -0 -1 -1 -0 -0
-1 -1 -0 0 0 -1 -2 -1 0 -0 -2 -1 3 3 5 5 5 4 3 3 2 2 2 2 2 1 1 1 0 -0 -1 -1 -1 -1 -0 -0 -1 -1 -1 -1 -1 -1 -1 -1
-3 -2 -2 -2 -2 -1 -2 -1 -2 -1 -0 1 2 0 4 5 5 4 3 2 2 2 2 2 2 1 1 0 -0 -1 -1 -1 -1 -1 -1 -1 -1 -1 -1 -2 -1 -1 -1 -2
-3 -4 -4 -3 -3 -2 -3 -3 -1 -1 -1 2 3 4 5 5 4 3 3 3 1 1 2 2 1 1 0 -0 -0 -1 -1 -2 -2 -2 -2 -2 -2 -2 -2 -2 -2 -1 -2 -3
-3 -4 -3 -2 -2 -2 -4 -3 -2 -0 -2 -2 -2 2 4 4 4 3 2 1 1 2 1 1 1 1 0 -0 -1 -1 -2 -2 -2 -2 -3 -3 -2 -2 -2 -2 -2 -2 -2 -3
-5 -5 -3 -2 -4 -4 -4 -2 -2 -1 -1 -3 -0 2 4 4 4 2 2 1 1 1 1 1 1 1 0 -0 -1 -2 -2 -2 -2 -2 -3 -3 -3 -3 -3 -3 -3 -3 -3 -3
-5 -5 -3 -1 -2 -2 -3 -1 -1 -2 -3 -1 -0 1 3 3 3 2 1 1 1 1 1 1 0 0 0 -1 -1 -2 -2 -2 -2 -3 -3 -3 -3 -3 -4 -4 -4 -4 -4 -4
-6 -6 -5 -3 -2 -3 -3 -2 -2 -2 -2 -2 1 1 2 2 1 1 1 1 1 1 1 0 0 0 -0 -1 -2 -2 -2 -2 -3 -3 -4 -4 -4 -4 -4 -4 -4 -5 -4 -3
-6 -7 -5 -5 -4 -5 -4 -3 -3 -3 -3 -2 -1 1 1 2 2 1 1 1 1 1 1 0 0 0 -0 -1 -2 -2 -2 -2 -3 -4 -4 -4 -4 -4 -4 -4 -4 -5 -4 -4
-5 -6 -7 -6 -5 -6 -6 -3 -3 -2 -1 -1 -1 3 2 2 1 1 -0 1 1 0 0 -0 -0 -0 -0 -1 -2 -2 -2 -2 -3 -3 -4 -4 -4 -4 -4 -4 -4 -5 -5 -4
-6 -6 -6 -6 -6 -4 -2 -2 -1 -1 0 0 1 1 1 1 1 -0 0 1 0 -0 0 -0 -0 -0 -0 -1 -2 -2 -2 -2 -3 -3 -4 -4 -4 -5 -5 -4 -4 -5 -5 -5
-7 -6 -6 -7 -6 -3 -2 -1 -1 -1 -0 0 0 1 1 0 0 1 1 0 0 0 -0 -0 -0 -1 -1 -1 -2 -2 -2 -2 -3 -3 -4 -4 -5 -5 -5 -5 -4 -5 -6 -6
-8 -7 -7 -7 -5 -4 -1 -2 -2 -2 -2 1 1 1 1 -0 0 -0 -0 0 -0 -0 -0 -0 -0 -1 -1 -1 -2 -2 -2 -2 -3 -3 -4 -4 -4 -4 -4 -4 -4 -4 -5 -6
-8 -8 -8 -7 -6 -4 -1 -2 -2 -4 -1 0 1 1 0 -1 -1 -1 -0 -0 -0 -0 -1 -1 -1 -1 -1 -1 -2 -2 -2 -2 -3 -4 -4 -4 -4 -4 -4 -4 -4 -4 -5 -5
-7 -8 -8 -8 -8 -6 -1 -1 -2 -2 -2 -1 -1 -1 -1 -1 -1 -1 -0 -1 -1 -1 -1 -1 -1 -1 -1 -1 -2 -2 -2 -2 -3 -3 -3 -4 -4 -5 -4 -4 -4 -5 -6 -6
-7 -5 -5 -5 -3 -1 -1 -1 -2 -4 -3 -2 -2 -1 -1 -1 -1 -1 -1 -1 -1 -0 -1 -1 -1 -1 -2 -2 -1 -2 -2 -2 -3 -3 -3 -3 -4 -4 -4 -4 -4 -4 -5 -5
-6 -5 -5 -4 -3 -2 -2 -3 -3 -2 -2 -2 -2 -2 -2 -2 -2 -2 -1 -1 -1 -1 -1 -1 -1 -2 -2 -2 -2 -2 -2 -2 -3 -3 -3 -3 -3 -3 -3 -4 -4 -4 -4 -4
-7 -5 -5 -4 -3 -3 -2 -2 -3 -3 -2 -3 -3 -3 -3 -2 -2 -2 -1 -1 -1 -1 -1 -1 -1 -1 -2 -2 -2 -2 -2 -2 -3 -3 -3 -3 -3 -3 -4 -4 -4 -4 -5 -5
-7 -6 -5 -4 -3 -3 -3 -3 -3 -2 -3 -3 -3 -3 -3 -3 -2 -2 -1 -1 -1 -1 -1 -0 -1 -1 -2 -1 -1 -2 -2 -2 -2 -3 -3 -3 -3 -4 -4 -4 -4 -5 -5 -5
Height
3045 3047 3045 3049 3051 3053 3054 3054 3054 3052 3053 3052 3051 3049 3051 3050 3048 3049 3049 3050 3050 3051 3052 3052 3053 3054 3054 3054 3053 3052 3050 3048 3046 3043 3041 3038 3035 3031 3027 3022 3017 3014 3011 3006
3044 3041 3045 3045 3047 3048 3050 3050 3051 3049 3049 3049 3046 3043 3044 3044 3043 3043 3043 3044 3044 3045 3046 3048 3049 3050 3050 3050 3049 3047 3045 3043 3039 3036 3033 3029 3024 3021 3016 3012 3008 3003 2999 2996
3039 3039 3040 3041 3043 3045 3046 3047 3048 3048 3046 3045 3042 3037 3036 3037 3036 3037 3036 3038 3038 3040 3041 3043 3045 3045 3045 3045 3043 3042 3040 3036 3033 3029 3025 3020 3016 3011 3006 3000 2994 2991 2988 2986
3035 3033 3036 3037 3038 3041 3042 3042 3043 3044 3045 3044 3042 3037 3033 3032 3032 3032 3033 3033 3034 3035 3037 3039 3041 3041 3041 3040 3038 3036 3033 3030 3025 3022 3018 3013 3008 3002 2996 2991 2986 2981 2977 2974
3028 3029 3031 3033 3034 3036 3037 3038 3040 3040 3041 3040 3037 3039 3027 3027 3026 3027 3029 3030 3031 3032 3034 3036 3037 3037 3036 3035 3033 3030 3027 3022 3018 3014 3010 3004 2999 2993 2987 2982 2976 2973 2969 2965
3024 3025 3027 3027 3030 3031 3034 3035 3037 3037 3037 3036 3032 3035 3023 3022 3022 3023 3026 3027 3028 3030 3032 3032 3032 3032 3031 3030 3027 3024 3020 3016 3012 3007 3001 2996 2990 2984 2978 2972 2966 2963 2959 2955
3020 3020 3022 3024 3026 3027 3030 3033 3036 3035 3034 3027 3027 3029 3018 3018 3019 3021 3023 3025 3026 3027 3028 3028 3028 3027 3026 3023 3020 3017 3012 3009 3004 2999 2994 2988 2982 2975 2969 2962 2957 2952 2948 2944
3014 3017 3016 3018 3020 3023 3024 3029 3027 3024 3023 3022 3025 3020 3013 3014 3016 3019 3021 3022 3024 3024 3024 3024 3023 3023 3021 3018 3014 3010 3007 3003 2998 2993 2987 2980 2972 2966 2959 2952 2945 2940 2935 2930
3011 3011 3010 3012 3014 3019 3018 3022 3024 3024 3024 3025 3017 3013 3012 3012 3013 3016 3018 3019 3020 3020 3019 3018 3018 3017 3014 3011 3007 3004 3000 2996 2992 2987 2979 2972 2965 2957 2949 2942 2935 2929 2923 2916
3007 3010 3006 3006 3009 3012 3014 3017 3021 3021 3022 3018 3010 3010 3006 3006 3010 3012 3014 3015 3015 3015 3014 3013 3011 3009 3007 3004 3001 2997 2993 2990 2986 2980 2972 2965 2958 2949 2941 2933 2926 2918 2911 2905
3001 3005 3003 3003 3001 3004 3008 3010 3012 3013 3012 3009 3005 3004 3002 3004 3007 3010 3011 3011 3010 3009 3008 3006 3005 3003 3000 2997 2995 2991 2988 2985 2980 2974 2967 2959 2951 2943 2934 2925 2917 2909 2902 2896
2997 2999 2998 2998 2997 2999 3001 3003 3006 3005 3007 3006 3004 3001 3001 3002 3004 3006 3008 3007 3005 3004 3002 3000 2999 2996 2993 2991 2989 2986 2984 2980 2974 2968 2962 2955 2948 2939 2929 2920 2910 2901 2895 2890
2990 2992 2995 2993 2995 2992 2992 2995 2998 2999 3000 2997 3000 2996 2998 2998 3001 3002 3003 3002 3000 2998 2997 2996 2993 2990 2987 2986 2984 2982 2978 2974 2969 2964 2958 2952 2945 2936 2927 2916 2905 2897 2891 2884
2984 2985 2983 2980 2982 2985 2985 2986 2990 2994 2993 2992 2984 2990 2994 2996 2998 2999 2998 2996 2994 2993 2992 2990 2988 2985 2982 2981 2979 2977 2974 2969 2965 2960 2955 2949 2942 2933 2924 2913 2902 2893 2887 2880
2978 2977 2978 2978 2979 2980 2981 2981 2982 2980 2983 2983 2981 2979 2985 2991 2993 2993 2991 2989 2989 2988 2987 2985 2983 2980 2977 2975 2974 2972 2968 2965 2961 2957 2952 2946 2939 2931 2923 2913 2901 2892 2885 2877
2970 2971 2972 2971 2973 2976 2975 2975 2974 2974 2975 2975 2977 2966 2980 2984 2986 2986 2985 2984 2984 2983 2982 2980 2977 2974 2972 2970 2969 2967 2963 2961 2957 2953 2948 2943 2936 2930 2923 2913 2903 2893 2883 2875
2965 2966 2968 2968 2968 2971 2967 2959 2964 2964 2966 2968 2963 2963 2972 2976 2977 2977 2977 2976 2977 2977 2975 2974 2971 2969 2967 2966 2965 2962 2960 2957 2954 2949 2945 2940 2934 2928 2923 2914 2905 2895 2884 2875
2961 2961 2963 2963 2965 2963 2952 2954 2956 2953 2957 2958 2957 2959 2965 2967 2967 2966 2968 2970 2972 2971 2970 2968 2966 2965 2963 2962 2961 2958 2957 2954 2950 2946 2942 2937 2931 2926 2921 2914 2906 2897 2886 2878
2955 2957 2957 2959 2957 2948 2948 2947 2947 2946 2946 2949 2949 2953 2957 2958 2959 2961 2964 2966 2967 2966 2965 2963 2961 2960 2959 2958 2957 2954 2952 2950 2946 2942 2939 2935 2931 2926 2920 2914 2908 2900 2891 2883
2946 2950 2954 2953 2952 2946 2944 2942 2942 2944 2940 2942 2944 2946 2948 2952 2955 2958 2960 2961 2961 2960 2958 2957 2956 2954 2953 2953 2951 2949 2947 2945 2942 2939 2937 2933 2929 2924 2919 2914 2908 2902 2894 2887
2936 2942 2945 2946 2946 2938 2940 2941 2943 2946 2945 2939 2940 2940 2942 2949 2952 2955 2956 2956 2956 2954 2953 2951 2951 2949 2948 2947 2946 2944 2943 2941 2938 2936 2933 2929 2927 2923 2918 2914 2909 2903 2897 2891
2924 2931 2935 2940 2942 2937 2934 2936 2938 2939 2940 2940 2940 2941 2944 2947 2949 2950 2950 2950 2950 2949 2948 2947 2945 2944 2943 2942 2941 2940 2938 2936 2934 2932 2930 2927 2925 2921 2918 2914 2909 2904 2899 2894
2917 2919 2922 2925 2925 2931 2930 2931 2932 2933 2937 2938 2939 2940 2942 2943 2945 2946 2946 2945 2944 2942 2942 2941 2940 2939 2938 2937 2936 2935 2933 2932 2930 2927 2926 2924 2921 2919 2916 2913 2909 2905 2900 2896
2910 2913 2916 2920 2921 2925 2928 2927 2931 2932 2934 2935 2935 2937 2937 2938 2939 2941 2940 2940 2938 2937 2936 2935 2934 2933 2932 2931 2930 2929 2928 2927 2925 2923 2922 2921 2918 2916 2914 2912 2910 2906 2902 2898
2906 2910 2909 2909 2916 2919 2921 2923 2927 2928 2929 2930 2931 2932 2932 2933 2934 2934 2934 2933 2933 2932 2931 2931 2928 2926 2926 2924 2924 2922 2922 2922 2921 2918 2917 2915 2914 2913 2910 2908 2906 2903 2901 2898
2891 2894 2898 2900 2911 2918 2919 2921 2922 2923 2925 2925 2925 2926 2926 2927 2927 2928 2927 2927 2926 2926 2925 2924 2923 2921 2919 2918 2917 2916 2915 2915 2915 2915 2912 2910 2909 2909 2907 2905 2904 2901 2899 2896
Wind_Speed
18 20 24 20 20 18 12 11 9 13 15 18 20 23 19 19 23 22 23 23 22 22 19 16 16 17 17 20 21 21 25 29 32 33 35 36 39 41 42 45 44 43 43 42
19 24 18 20 19 20 21 17 15 20 18 18 21 26 21 23 26 26 26 25 24 23 19 17 17 17 18 21 21 24 28 31 33 34 35 38 42 44 45 45 44 43 41 40
21 16 17 21 20 21 20 18 14 15 17 19 22 23 17 18 20 21 20 18 20 19 17 17 18 18 21 22 23 26 29 31 33 34 36 40 43 46 47 47 47 44 42 40
17 26 23 17 18 19 16 19 19 18 11 6 8 7 14 19 20 21 17 16 15 15 15 17 17 20 23 24 26 28 29 31 32 33 37 40 45 46 45 45 45 43 42 40
17 16 20 23 21 19 19 17 14 14 12 13 12 7 12 15 16 18 17 14 13 13 15 16 19 23 24 26 28 30 30 31 31 34 37 41 43 43 43 43 42 40 38 39
23 17 17 20 21 20 17 14 11 12 9 5 10 9 13 12 14 13 11 12 12 12 14 17 21 23 25 27 29 30 30 31 32 34 37 41 42 42 43 43 42 41 40 42
24 24 23 20 18 18 19 11 2 3 3 4 7 7 18 10 11 13 7 10 12 13 14 18 22 24 26 28 29 30 30 32 33 36 38 40 41 42 43 44 43 40 40 44
19 11 26 22 24 15 20 17 6 5 4 2 5 8 6 10 16 14 8 8 9 12 18 21 22 24 26 28 30 30 31 31 33 36 38 40 41 42 44 45 43 43 46 46
8 11 15 21 25 23 15 18 22 3 5 2 8 11 17 11 15 15 8 5 10 15 16 18 21 23 25 29 30 29 29 30 33 36 38 39 41 43 45 41 40 41 42 43
16 12 15 22 21 26 22 16 8 9 5 6 5 7 15 13 19 14 10 7 17 17 17 19 20 21 25 28 29 29 29 30 31 35 36 38 41 42 40 38 37 39 41 41
23 17 9 16 19 25 29 25 14 11 7 4 2 5 8 15 14 6 13 16 22 22 20 20 20 23 25 26 27 28 27 28 30 32 33 36 37 38 37 37 38 39 37 34
28 15 18 19 19 21 23 27 29 10 8 9 2 10 5 8 14 11 10 15 26 24 20 19 22 24 24 25 26 26 25 25 28 29 30 31 33 37 39 38 36 33 32 31
21 16 12 8 16 22 24 31 32 33 15 13 6 4 9 13 14 11 14 24 29 25 19 20 22 23 23 24 24 23 23 24 27 27 27 29 32 36 40 41 38 32 28 32
17 20 20 16 3 8 19 32 34 35 18 16 34 24 19 16 17 22 29 29 29 20 18 21 23 22 22 22 23 21 21 22 25 25 26 27 31 35 39 42 39 30 27 32
28 19 26 34 26 17 15 18 28 40 42 25 21 35 32 27 25 25 25 22 19 18 20 20 23 22 21 21 21 20 19 21 23 23 24 26 30 33 36 38 36 27 26 29
29 17 19 27 28 33 30 27 26 25 27 44 44 50 37 26 23 15 28 27 20 19 19 20 21 20 19 20 20 19 19 20 22 23 24 25 28 30 32 35 39 29 26 27
31 27 20 9 17 23 26 48 41 40 36 34 41 40 30 33 33 32 25 23 19 19 19 19 20 19 18 18 18 17 18 19 20 22 23 23 25 28 29 32 35 36 31 27
20 27 18 5 8 7 13 15 23 34 39 45 52 51 40 38 31 23 24 21 18 19 20 19 19 18 16 17 16 16 18 18 18 20 22 22 23 26 27 28 31 34 37 33
28 24 11 7 11 16 17 19 23 30 33 30 33 25 20 18 20 17 17 15 16 18 18 19 18 16 15 16 15 15 17 17 16 18 21 22 23 24 25 26 27 30 32 35
30 30 23 12 6 6 4 7 13 14 26 19 18 18 22 20 14 12 10 10 13 15 15 15 15 14 15 16 14 14 16 17 15 14 19 20 20 21 23 24 26 26 28 31
31 30 28 17 9 11 18 14 17 6 5 10 8 14 17 17 13 8 8 11 14 14 15 14 15 14 15 15 15 15 16 17 14 12 15 17 19 20 20 21 22 23 24 25
34 26 19 16 10 12 17 18 20 17 11 9 11 14 13 11 8 10 14 15 17 18 19 18 16 16 16 16 16 15 16 17 15 12 13 15 17 18 18 18 18 19 20 21
22 30 33 26 22 16 9 9 11 13 11 14 15 15 17 17 15 17 16 18 20 22 23 21 19 18 17 17 17 15 16 16 15 13 12 12 13 13 13 14 15 16 17 17
35 29 28 23 25 21 15 15 11 12 15 16 15 15 17 17 18 17 18 18 18 17 16 18 19 19 19 20 19 17 18 18 15 14 13 12 10 10 11 12 12 12 12 13
28 27 34 36 32 27 22 21 15 14 11 11 13 14 16 17 17 18 19 17 17 17 19 19 18 17 19 23 21 19 19 19 19 16 14 14 14 11 9 11 11 10 10 10
39 42 39 39 34 28 20 17 18 19 21 19 18 16 17 20 22 21 20 21 22 24 26 29 28 24 22 25 26 22 20 20 21 21 19 17 15 17 14 14 14 13 11 11
Wind_Direction
217 216 225 231 231 226 224 228 237 245 256 263 270 275 274 270 274 268 265 262 264 258 255 256 265 273 285 295 290 289 295 297 295 294 293 297 300 301 302 304 303 297 292 289
225 231 232 233 235 239 245 252 254 257 266 271 275 278 278 271 271 268 263 257 255 251 250 249 259 273 287 288 287 291 294 296 300 300 301 303 305 307 307 305 302 299 295 285
232 243 244 237 238 241 243 240 246 252 278 281 287 292 284 268 264 259 248 241 241 240 235 245 259 278 283 288 290 292 296 300 300 302 304 306 307 307 308 307 305 301 295 288
238 243 242 243 239 235 235 244 251 262 271 269 278 288 274 275 270 260 246 247 235 230 233 248 264 276 279 289 290 293 294 298 302 303 305 308 309 309 310 308 303 299 295 290
228 240 240 237 236 232 234 249 252 258 264 279 271 245 272 266 264 254 244 227 224 227 237 251 266 273 282 292 292 295 298 302 302 305 308 310 312 313 313 308 302 298 295 293
233 242 241 230 236 232 236 244 256 269 266 248 228 220 272 249 238 233 226 229 229 236 246 258 268 275 286 291 294 295 300 302 302 307 312 313 315 316 316 309 302 298 294 291
230 236 240 238 232 230 225 215 217 229 188 248 232 209 234 239 225 206 227 231 240 250 262 271 277 279 291 295 295 298 303 303 308 314 315 316 318 317 314 311 301 297 293 292
215 235 232 235 225 229 219 206 209 236 217 115 217 230 243 237 225 215 236 245 241 260 275 279 278 283 291 296 298 299 303 308 313 315 319 321 321 320 316 312 308 298 295 294
218 233 223 227 227 214 217 215 224 240 275 284 233 263 256 242 200 212 219 238 288 296 294 287 284 284 293 297 299 302 307 310 316 320 324 325 324 321 317 314 308 303 298 295
238 249 246 230 219 226 217 217 197 198 205 234 206 254 238 220 216 211 214 277 314 311 303 296 293 295 297 300 301 305 310 316 322 326 329 328 327 325 320 316 311 303 300 297
226 215 244 233 225 222 217 216 208 197 201 242 249 234 220 201 197 220 237 277 305 310 305 302 303 302 302 301 303 309 313 319 327 331 333 334 335 332 326 320 315 310 307 300
219 231 238 248 244 232 219 226 219 206 202 219 229 243 217 210 216 265 280 288 304 306 303 304 309 305 303 304 306 310 317 325 331 333 336 339 344 345 343 333 325 323 325 317
210 223 236 256 255 244 231 230 225 222 234 217 194 223 228 235 227 232 292 305 299 299 295 306 310 306 306 306 308 311 321 329 332 333 333 337 341 342 342 343 337 328 326 326
225 223 215 226 236 229 223 233 231 226 225 229 235 237 227 248 247 280 293 293 290 286 293 307 306 306 306 305 308 315 324 329 331 332 330 336 343 345 346 347 343 334 326 325
224 242 240 237 241 260 253 249 234 229 227 226 245 253 257 257 267 281 286 284 278 279 296 304 304 305 304 306 310 317 325 328 331 330 329 333 341 347 350 354 353 348 341 338
221 231 249 253 247 241 260 251 249 248 245 246 253 259 260 272 278 273 294 280 276 281 295 302 306 303 303 306 309 316 326 327 329 331 331 333 341 347 354 358 3 1 354 355
236 230 227 252 239 240 259 241 244 248 246 248 248 263 270 277 283 285 280 266 266 280 295 302 306 302 300 302 304 319 324 323 326 333 333 335 342 346 352 357 4 11 14 12
249 225 219 234 188 225 254 250 244 253 253 255 259 264 271 276 281 264 245 255 267 284 294 298 300 297 298 297 303 318 319 318 323 335 335 337 340 344 351 358 4 12 21 20
242 234 208 202 213 273 270 265 247 247 259 256 262 265 263 256 249 236 240 250 271 283 288 295 294 292 296 293 297 315 316 317 320 336 336 340 344 347 354 1 4 14 22 27
233 230 217 197 222 220 252 326 250 253 271 267 263 253 237 231 232 216 231 264 283 287 293 301 300 298 297 295 298 311 315 309 315 334 337 339 342 345 354 3 6 10 19 26
202 210 211 207 232 261 250 260 280 219 294 286 261 233 209 189 201 220 264 292 298 298 299 299 303 303 296 296 296 303 310 306 313 325 332 336 337 344 356 6 12 12 16 24
202 187 201 202 218 257 258 248 235 250 270 207 179 162 176 202 245 281 290 294 296 295 296 290 292 297 300 295 294 296 303 306 308 312 322 333 334 343 355 4 11 17 20 21
203 209 210 212 233 253 245 231 239 232 221 216 231 243 251 258 268 277 285 289 295 295 291 287 283 286 296 293 291 291 292 298 299 300 306 318 328 335 345 355 3 8 14 19
222 221 218 222 231 236 258 180 182 182 211 245 256 254 261 269 271 274 280 290 295 300 298 293 288 282 286 287 285 285 285 287 292 292 295 300 310 319 329 337 344 350 356 5
235 223 227 238 244 255 225 209 240 227 239 246 255 267 271 270 267 278 284 282 290 294 297 302 304 294 284 281 280 277 278 280 283 277 280 283 284 286 296 306 312 321 331 339
221 230 230 241 251 237 211 248 243 247 262 259 265 276 282 278 272 282 289 283 281 287 296 298 293 288 285 280 280 274 273 272 276 279 275 272 273 280 281 284 292 299 307 317